Lapse_Rate
6.3 6.3 6.2 6.2 6.0 6.3 6.5 6.7 6.9 7.0 6.9 6.9 6.8 6.8 6.8 6.8 6.9 6.9 7.0 6.9 6.8 6.6 6.5 6.5 6.5 6.5 6.5 6.5 6.4 6.4 6.5 6.5 6.4 6.4 6.4 6.4 6.5 6.6 6.6 6.6 6.5 6.4 6.3
6.1 6.1 6.3 6.2 6.2 6.2 6.5 6.6 6.7 6.8 6.7 6.7 6.8 6.7 6.7 6.7 6.7 6.6 6.6 6.4 6.4 6.3 6.3 6.2 6.2 6.2 6.3 6.4 6.5 6.5 6.5 6.4 6.4 6.4 6.5 6.5 6.6 6.6 6.6 6.7 6.7 6.7 6.7
6.0 5.9 6.1 6.1 6.2 6.2 6.3 6.4 6.5 6.6 6.5 6.5 6.5 6.3 6.5 6.5 6.5 6.4 6.4 6.4 6.3 6.2 6.2 6.2 6.2 6.2 6.2 6.2 6.2 6.4 6.4 6.4 6.4 6.4 6.5 6.6 6.6 6.6 6.7 6.7 6.8 6.8 6.8
5.8 5.7 5.9 6.0 5.9 6.1 6.2 6.2 6.3 6.4 6.4 6.3 6.2 6.3 6.3 6.3 6.3 6.2 6.1 6.1 6.0 6.1 6.0 6.0 6.0 6.0 6.0 6.1 6.1 6.2 6.3 6.3 6.4 6.5 6.7 6.6 6.8 6.7 6.7 6.7 6.6 6.6 6.7
5.6 5.5 5.6 5.7 5.7 5.6 5.8 5.9 5.9 6.0 6.0 5.9 6.0 6.0 6.1 6.1 6.1 6.0 6.0 6.0 5.9 5.8 5.8 5.7 5.8 5.8 5.8 5.9 6.0 6.1 6.2 6.3 6.4 6.4 6.5 6.7 6.8 6.8 6.8 6.8 6.7 6.8 6.7
5.4 5.3 5.3 5.4 5.5 5.4 5.3 5.3 5.3 5.3 5.4 5.5 5.6 5.6 5.7 5.7 5.7 5.7 5.7 5.6 5.6 5.7 5.8 5.8 5.9 5.9 5.9 6.0 6.0 6.0 6.1 6.1 6.1 6.2 6.2 6.5 6.6 6.6 6.7 6.8 6.9 6.8 6.7
5.3 5.2 5.2 5.2 5.3 5.2 5.0 4.9 4.9 5.0 5.0 5.1 5.3 5.4 5.5 5.4 5.6 5.5 5.5 5.6 5.6 5.6 5.7 5.8 5.9 5.9 6.0 5.9 5.9 6.0 6.0 6.0 6.0 6.0 6.0 6.1 6.5 6.4 6.4 6.5 6.6 6.6 6.6
5.3 5.2 5.3 5.4 5.3 5.2 5.1 5.0 4.9 4.9 4.8 4.9 5.0 5.2 5.3 5.5 5.4 5.3 5.4 5.5 5.6 5.6 5.7 5.7 5.9 6.0 6.0 6.0 6.1 6.1 6.2 6.2 6.3 6.2 6.2 6.3 6.3 6.5 6.4 6.4 6.6 6.4 6.5
5.4 5.3 5.4 5.5 5.5 5.4 5.3 5.2 5.1 5.0 5.0 5.0 4.9 5.1 5.2 5.3 5.3 5.4 5.1 5.2 5.4 5.5 5.7 5.8 5.8 5.8 5.9 5.9 5.9 6.0 5.9 6.0 6.1 6.1 6.1 6.2 6.3 6.4 6.3 6.2 6.3 6.4 6.5
5.5 5.6 5.6 5.7 5.7 5.7 5.6 5.6 5.5 5.3 5.2 5.1 5.1 4.9 4.8 5.0 5.2 5.5 5.5 5.4 5.0 5.3 5.5 5.7 5.9 6.0 5.9 5.9 5.9 6.0 6.1 6.0 6.0 6.1 6.0 6.0 6.0 6.2 6.2 6.0 6.1 6.1 6.2
5.5 5.6 5.8 5.8 5.9 5.8 5.7 5.7 5.6 5.4 5.2 5.0 5.0 5.0 5.0 4.9 4.8 5.1 5.7 5.3 5.4 5.6 5.4 5.3 5.6 5.8 6.1 6.0 6.0 6.1 6.0 6.0 6.0 6.0 6.0 6.0 5.9 6.0 5.9 5.9 6.0 6.1 6.2
5.4 5.7 5.8 5.8 5.8 5.7 5.6 5.5 5.4 5.2 5.1 5.1 4.9 4.9 5.0 5.0 5.1 5.2 5.4 5.5 5.4 5.6 5.5 5.7 5.4 5.8 5.8 6.0 6.1 6.2 6.1 6.0 5.9 5.8 5.6 5.6 5.6 5.7 5.8 5.8 5.8 6.0 6.1
5.4 5.6 5.6 5.5 5.5 5.4 5.3 5.2 5.3 5.2 5.1 5.3 5.1 5.0 5.0 5.1 4.9 5.0 5.1 5.5 5.6 5.7 5.8 6.2 5.7 5.6 5.4 5.7 6.0 6.2 6.2 6.3 6.2 6.1 5.9 5.7 5.7 5.8 5.8 5.8 5.9 5.9 6.0
5.4 5.3 5.2 5.2 5.1 5.1 5.2 5.2 5.2 5.2 5.1 5.2 5.2 5.1 5.2 5.1 5.2 5.2 5.2 5.3 5.7 5.8 6.1 6.2 6.3 6.6 5.6 5.6 5.8 5.9 5.8 5.9 5.9 5.9 5.9 5.8 5.7 5.7 5.6 5.7 5.7 5.8 5.8
5.2 5.1 5.0 4.9 5.0 5.0 5.0 5.0 5.0 5.1 5.2 5.3 5.2 5.2 5.2 5.2 5.3 5.4 5.5 5.4 5.3 5.7 6.2 6.6 6.0 6.4 6.4 5.9 5.9 5.6 5.5 5.6 5.7 5.5 5.5 5.4 5.4 5.5 5.5 5.4 5.3 5.3 5.4
5.1 5.0 4.9 4.8 4.7 4.7 4.8 4.8 4.9 5.0 5.2 5.2 5.3 5.3 5.5 5.5 5.5 5.7 5.8 5.9 5.8 5.7 5.6 5.9 5.8 5.7 5.9 6.4 6.0 5.8 5.5 5.3 5.2 5.2 5.1 5.0 5.1 5.1 5.0 5.0 5.0 5.0 5.1
4.7 4.6 4.6 4.6 4.6 4.7 4.8 4.8 4.8 4.9 5.0 5.2 5.4 5.4 5.6 5.7 5.9 6.1 6.2 6.2 6.1 5.9 5.9 6.0 5.9 5.8 5.7 5.7 5.9 5.6 5.3 5.1 4.9 4.7 4.6 4.8 4.9 4.9 4.8 4.8 4.9 5.0 5.1
4.3 4.4 4.5 4.5 4.6 4.6 4.7 4.7 4.8 5.0 5.2 5.4 5.6 5.7 5.9 6.1 6.4 6.4 6.2 6.1 6.1 6.1 6.0 6.1 6.0 5.9 5.7 5.6 5.3 5.1 4.6 4.5 4.5 4.4 4.5 4.7 4.7 4.7 4.7 4.8 4.9 5.0 5.1
4.2 4.3 4.4 4.4 4.6 4.7 4.8 4.9 5.1 5.3 5.5 5.7 5.9 6.2 6.3 6.3 6.5 6.5 6.5 6.5 6.5 6.3 6.0 6.1 6.3 5.9 5.6 5.0 4.8 4.7 4.6 4.5 4.4 4.2 4.1 4.3 4.6 4.5 4.5 4.7 4.9 5.2 5.3
4.3 4.4 4.5 4.6 4.7 4.8 4.9 5.1 5.4 5.6 5.8 6.0 6.2 6.3 6.4 6.4 6.4 6.4 6.4 6.3 6.2 6.1 6.0 6.0 6.1 5.7 5.0 4.6 4.3 4.2 4.5 4.2 4.1 3.9 3.9 4.1 4.2 4.2 4.5 5.0 5.5 5.6 5.7
4.3 4.3 4.4 4.6 4.8 5.1 5.2 5.4 5.6 5.7 5.9 6.1 6.3 6.3 6.2 6.3 6.3 6.5 6.5 6.4 6.0 5.6 5.3 5.0 4.7 4.6 4.5 4.3 4.2 4.0 3.7 3.6 3.2 3.5 3.8 3.7 4.1 4.5 5.1 5.6 5.8 5.9 5.9
4.4 4.5 4.7 4.8 5.1 5.3 5.4 5.5 5.6 5.8 6.0 6.1 6.1 6.2 6.2 6.2 6.3 6.4 6.1 5.5 5.1 4.7 4.6 4.4 4.2 4.1 4.1 4.0 4.2 3.9 3.1 2.8 3.0 3.8 3.8 4.3 4.8 5.4 6.0 6.0 6.1 6.1 6.0
4.5 4.7 4.9 5.1 5.3 5.5 5.5 5.6 5.8 5.9 5.9 6.0 6.1 6.0 6.1 6.2 6.1 5.7 5.3 4.9 4.5 4.4 4.3 4.2 4.1 4.3 4.1 4.0 3.7 3.3 3.0 3.1 3.7 4.3 4.7 5.2 6.0 6.2 6.2 6.2 6.1 6.1 6.1
4.6 4.7 5.2 5.5 5.7 5.8 5.8 5.7 5.7 5.9 6.0 5.9 5.7 5.6 5.7 5.6 5.4 5.0 4.7 4.4 4.3 4.3 4.2 4.0 3.8 3.8 3.8 4.2 3.8 3.7 3.3 4.1 4.7 5.5 5.8 6.5 6.6 6.6 6.5 6.3 6.0 6.1 6.1
5.1 5.4 5.4 5.4 5.6 5.6 5.5 5.4 5.5 5.8 5.9 6.0 5.9 5.6 5.1 4.7 4.4 4.3 4.0 3.9 3.9 4.1 4.0 4.0 4.3 4.7 5.1 4.9 4.5 4.1 4.7 5.4 5.8 6.3 6.8 6.7 6.7 6.8 6.8 6.2 6.1 6.1 6.0
5.1 5.4 5.6 5.5 5.5 5.5 5.4 5.3 5.3 5.5 5.6 5.3 4.9 4.6 4.3 4.1 4.0 3.9 3.8 3.8 3.8 4.4 4.6 5.2 5.8 5.9 6.0 5.7 5.3 5.4 5.9 6.2 6.5 6.6 6.8 6.9 6.9 6.7 6.8 6.5 6.2 6.2 6.2
Wind_Speed
5 7 6 7 7 9 9 9 9 9 8 8 8 7 6 6 6 3 9 10 8 8 8 7 8 8 8 8 9 9 10 10 10 10 11 11 12 12 13 12 11 12 11
6 5 6 6 7 8 9 9 8 7 6 7 6 6 5 4 5 4 4 10 7 7 8 9 10 11 11 12 10 10 12 11 11 12 12 13 11 11 13 13 14 14 15
5 5 4 5 7 8 8 9 8 8 5 6 7 5 5 5 2 2 2 3 9 9 9 10 9 8 10 10 9 10 11 12 11 12 11 13 11 11 11 11 11 11 12
4 4 4 4 7 7 7 6 5 5 5 5 5 4 4 3 2 2 1 2 2 1 8 7 8 8 9 10 10 10 10 11 11 13 12 13 10 12 12 12 11 10 9
3 4 4 4 6 6 5 5 5 5 5 5 6 4 3 4 3 2 1 2 1 2 3 4 3 4 6 8 9 10 11 11 12 12 13 9 10 13 15 14 15 15 15
3 4 4 3 4 3 4 4 6 5 5 5 7 5 4 3 3 3 3 3 2 3 3 3 4 1 2 6 8 11 11 11 11 11 11 10 11 13 15 16 15 15 15
4 5 4 4 4 3 4 5 5 6 5 6 5 5 4 4 5 4 4 4 3 4 4 4 5 5 6 5 4 9 10 11 11 11 11 9 9 11 12 14 16 16 14
6 6 5 4 4 4 4 4 4 4 5 4 4 6 4 2 4 5 4 4 5 4 5 5 6 6 5 6 3 7 8 9 10 9 10 9 9 10 11 12 13 13 12
6 7 8 6 5 3 4 4 3 4 4 4 2 2 3 3 6 1 3 4 5 4 5 4 7 7 7 7 6 5 5 9 9 10 9 8 8 9 10 12 12 12 13
8 8 8 8 6 4 5 4 3 3 3 4 3 3 4 5 3 4 1 4 4 5 5 5 6 7 8 7 6 6 5 8 9 9 10 9 9 8 9 11 11 11 11
7 8 8 8 6 4 5 6 5 5 4 4 4 4 5 5 6 4 6 5 4 4 5 5 6 6 9 9 8 8 5 7 9 9 10 10 10 9 10 11 11 10 10
4 6 6 7 8 6 6 6 6 6 5 5 5 5 5 5 4 5 6 8 9 7 4 4 6 5 8 10 11 7 8 9 9 10 11 11 11 10 9 10 11 11 10
4 4 5 5 5 6 6 7 6 7 6 6 7 6 6 6 6 7 7 8 7 7 6 5 6 6 9 10 12 13 11 12 11 12 12 12 11 11 11 11 11 11 12
4 5 6 7 8 9 8 7 6 6 7 6 9 8 7 7 7 7 7 7 8 8 8 12 6 5 9 11 13 13 11 14 13 13 13 14 13 13 13 13 13 12 12
4 5 7 6 7 7 7 7 6 7 7 7 8 9 8 8 8 7 8 7 8 8 9 8 6 5 7 11 13 12 13 14 16 16 16 16 16 15 15 15 16 13 13
6 6 7 7 8 7 7 8 7 7 8 7 7 9 9 8 9 8 7 8 9 10 13 8 8 4 6 9 13 16 15 17 19 20 20 19 19 18 17 16 16 14 14
6 7 7 7 8 8 8 8 8 9 9 10 10 10 12 11 9 8 8 8 9 10 13 11 10 10 10 8 9 13 16 14 15 21 22 21 20 20 19 18 18 17 16
7 7 8 9 9 9 9 9 9 9 10 11 11 10 11 8 11 10 9 11 11 11 12 18 12 10 12 12 9 9 8 14 14 19 21 21 21 21 20 19 19 19 17
7 8 8 9 10 10 10 10 10 10 10 11 11 11 12 11 11 10 10 10 10 10 11 13 13 9 9 9 9 9 9 9 14 18 22 23 22 22 22 21 20 20 18
8 8 8 9 9 9 9 9 9 10 11 11 12 12 12 12 12 12 11 11 11 11 11 11 12 11 10 9 9 9 9 9 9 11 17 18 17 19 19 20 19 19 18
7 8 8 8 9 8 7 9 10 11 12 12 12 12 11 11 13 14 10 12 12 11 11 11 11 13 12 11 12 10 11 9 8 7 7 5 5 7 11 18 18 19 18
8 8 8 9 10 7 14 17 14 11 12 13 12 12 12 11 13 18 20 23 18 13 15 12 12 13 17 14 11 11 11 9 9 5 7 7 6 5 5 8 15 16 12
8 9 9 9 10 11 17 20 20 11 11 11 13 12 12 10 13 12 17 21 20 23 22 15 16 17 17 15 15 14 13 10 11 5 1 6 4 5 5 9 16 12 14
8 9 9 10 10 10 19 21 21 13 11 12 11 12 12 12 12 14 13 14 14 14 14 11 14 16 15 14 14 13 12 11 8 6 8 6 3 5 3 4 12 11 12
8 9 9 11 12 12 18 21 19 12 11 13 11 10 12 14 18 22 15 14 15 15 15 21 23 28 28 27 24 8 8 6 6 5 6 4 3 3 2 3 4 6 10
9 8 10 10 15 13 17 18 17 9 12 11 12 12 17 18 22 22 16 14 14 15 15 16 14 16 19 17 23 15 8 9 6 3 6 6 4 2 2 3 0 3 5
Wind_Direction
358 346 5 4 3 354 355 346 343 337 335 341 336 333 329 335 337 354 88 64 29 26 22 16 14 11 5 10 22 23 14 8 357 346 339 326 321 317 310 314 309 303 301
356 354 355 4 3 1 350 340 340 330 328 334 327 334 334 335 349 357 14 99 67 42 29 20 21 23 22 11 11 15 7 357 348 340 337 336 335 329 305 298 295 297 298
348 348 3 357 358 355 349 341 339 332 324 334 333 331 331 341 341 23 19 6 134 86 53 38 29 23 16 11 5 5 3 355 348 347 331 339 334 322 316 312 310 301 297
347 344 350 9 353 349 350 346 340 338 330 340 333 339 319 301 320 339 335 346 40 30 107 61 44 38 28 19 11 4 358 354 344 343 357 2 5 13 22 20 8 350 342
327 330 350 351 347 340 343 340 339 339 332 337 316 319 313 312 313 281 314 330 61 355 349 124 104 63 29 13 6 360 355 350 345 334 347 351 359 7 6 4 3 356 355
286 307 312 322 330 322 336 341 336 334 323 333 321 308 298 280 249 258 253 241 261 291 301 318 321 232 90 358 355 354 349 345 342 336 327 349 354 357 355 351 349 348 345
276 282 293 294 307 307 323 326 332 328 333 345 294 336 259 240 260 255 249 266 262 282 301 305 305 331 317 318 333 348 348 345 340 336 326 324 335 333 336 341 343 339 350
259 269 275 289 290 301 301 313 335 331 315 13 329 293 316 228 219 243 262 282 269 276 268 267 283 287 295 305 348 320 341 340 337 335 327 315 323 332 331 325 329 322 341
259 264 273 275 285 282 289 304 300 313 319 317 343 314 316 331 351 123 234 252 263 253 263 263 264 267 277 280 280 288 339 334 329 328 321 313 316 325 329 327 321 319 332
268 265 266 273 276 283 282 284 279 280 288 293 320 231 272 293 304 314 171 228 259 281 280 266 272 257 251 259 263 255 288 316 320 321 317 311 307 313 323 323 323 324 327
263 271 268 272 269 267 272 277 279 260 255 268 276 285 274 260 258 262 294 301 292 238 223 260 272 249 245 233 247 251 246 290 302 306 307 302 297 304 313 318 316 317 320
281 276 267 269 273 273 275 270 265 260 261 261 260 262 255 267 270 263 270 284 293 295 284 264 242 242 241 228 235 241 246 259 278 286 288 289 292 295 297 302 308 308 309
297 309 312 294 283 276 271 272 271 267 265 257 256 259 256 249 260 267 272 276 280 283 280 249 245 242 231 231 239 212 237 247 261 272 276 279 284 290 287 285 292 301 302
323 329 315 307 300 297 292 281 272 268 268 267 264 261 265 260 253 249 256 272 281 273 274 264 245 217 229 233 235 220 235 254 252 262 269 271 274 279 280 281 279 287 291
335 336 329 322 317 309 303 297 287 285 280 277 268 264 261 260 257 253 250 246 253 278 275 267 271 187 223 229 233 231 242 259 258 259 264 263 263 266 272 275 275 271 278
345 337 333 329 322 316 312 306 298 293 290 283 275 271 270 266 264 258 250 247 248 255 269 268 269 255 201 229 229 227 243 263 266 261 261 257 257 259 263 265 269 261 271
344 333 331 324 318 315 314 307 301 298 293 291 285 277 275 276 270 268 262 252 251 251 263 267 264 264 261 223 231 229 234 245 254 259 257 256 256 255 258 262 266 257 260
336 333 328 323 321 320 319 312 307 306 302 297 293 291 287 282 274 267 266 266 261 255 261 272 267 267 258 254 250 239 245 244 240 251 257 253 254 253 256 260 262 255 258
331 327 327 324 320 318 316 312 310 306 303 299 296 293 293 292 287 283 278 268 261 259 263 269 274 267 265 264 256 234 235 243 245 248 253 254 251 253 254 259 257 252 253
325 326 323 318 313 310 305 303 306 310 302 297 292 287 287 285 284 283 283 287 289 286 278 271 270 270 264 258 255 249 245 234 238 239 244 241 249 251 253 256 249 250 252
312 308 308 305 303 302 297 307 304 303 301 297 293 287 283 281 290 291 288 282 281 282 284 282 277 275 271 263 248 249 246 247 249 224 225 228 237 232 240 242 244 248 250
305 307 301 302 301 297 297 299 301 300 300 297 294 294 294 298 296 299 302 298 287 281 277 276 277 274 275 271 262 254 250 243 251 229 220 230 229 228 228 237 248 241 239
299 297 297 298 297 297 298 302 302 298 298 292 289 292 296 294 297 285 284 286 288 287 287 292 283 274 272 270 267 254 246 234 238 247 240 233 212 231 234 240 247 240 235
299 298 296 297 300 295 297 301 305 299 292 290 294 287 283 280 277 282 284 282 278 276 275 269 265 273 276 273 264 256 241 236 243 237 212 234 231 253 248 238 241 237 238
295 297 295 295 295 296 301 304 307 299 292 288 286 281 283 284 280 284 290 285 282 280 280 275 268 271 269 265 263 241 220 211 218 212 209 216 220 260 220 261 246 202 239
284 290 291 289 289 292 296 304 310 302 296 296 295 290 287 293 293 296 295 290 287 286 292 289 278 280 269 266 260 257 199 210 206 193 211 207 188 155 256 175 177 163 227